THOR ABLESTAR DEB, 643

Orbit data source: Space-Track

THOR ABLESTAR DEB, 643 is space debris in LEO originally from a launch on Thu, 29 Jun 1961 UTC launched from the Air Force Eastern Test Range (AFETR). Debris objects in space refer to the collection of defunct objects orbiting the Earth. Examples of debris include non-operational satellites, rocket bodies, and fragments generated from explosions, collisions, or faulty payload assembly.

Loading next visibility...
Identifier
643, 1961-015GU
Orbit
LEO
Country
Flag of USUS
Related business
Manufacturer
Unknown
Mission
Spacecraft
Bus & Motor
Unknown
Mass
Unknown
Launch date (UTC)
1961-06-29 (64 years ago)
Launch vehicle
Unknown
Launch site
Air Force Eastern Test Range (AFETR)
Object type
Payload
Rocket body
Debris
Shape & HBR
Unknown shape, 0.1 m
Radar Cross Section
Small (<0.1 m²)

Expand to show TLE details & history
Last TLE update: 11 hours ago

TLE from 11 hours ago
0 THOR ABLESTAR DEB
1 00643U 61015GU  25311.06052804  .00001842  00000-0  27307-2 0  9999
2 00643  66.3672 201.2235 0328787 163.8682 197.3142 13.36199100 80311
Epoch: 2025-11-07T01:27Z
TLE epoch observation values (Epoch: 2025-11-07T01:27:09.622Z)
Latitude
-0.00005°
Longitude
132.92347°
Altitude
1,361.643 km
Speed
7.064 km/s
True Right ascension
13h 24m 53s
True Declination
0° 00' 00"
Sunlit
Object was in daylight at epoch
Visualization orbit readout
Latitude
Unknown
Longitude
Unknown
Altitude
Unknown
Speed
Unknown
Apparent Right ascension
Unknown
Apparent Declination
Unknown
Sunlit
N/A
Visualization observer readout
Local Sidereal Time
08:57:28
Azimuth
Unknown
Elevation
Unknown
Doppler factor
Unknown
Orbital elements
Apogee altitude
1,368.547 km
Perigee altitude
875.36 km
Semi-major axis
7,500.091 km
Eccentricity
0.03288
Inclination
66.3672°
RAAN
201.2235°
Arg. of periapsis
163.8682°
True anomaly
196.23537°
Mean anomaly
197.3142°
Eccentric anomaly
196.77064°
Mean motion
3.34151 °/min
Orbital period
107.74 mins
BSTAR
0.0027307
Loading maneuver chart data...
Computing Atmospheric mass density...

Documentation

Showing up to 5 results
|